User: anonymous   Login
Location: Unspecified
(0.0000°N, 0.0000°E)
Time: 10:39:30
(UTC+02:00)
Language:

SJ-6B - Orbit

View from above orbital plane
View from above orbital plane
View from above satellite
View from above satellite

Ground track
Ground track

The orbit data is extracted from the following two-line orbital elements,

1 28415U 04035C   14295.08419049  .00004819  00000-0  35191-3 0  3266
2 28415 097.8017 300.5372 0057505 160.3971 199.9482 15.02817603552808
Epoch (UTC): 22 October 2014 02:01:14
Eccentricity: 0.0057505
inclination: 97.8017°
perigee height: 518 km
apogee height: 598 km
right ascension of ascending node: 300.5372°
argument of perigee: 160.3971°
revolutions per day: 15.02817603
mean anomaly at epoch: 199.9482°
orbit number at epoch: 55280

The dashed part of the orbit path shows where the satellite is in the earth's shadow,  

DLR